{"data":{"norad_id":62143,"intl_designator":"2024-224E","name":"STARLINK-32485","alt_names":[],"object_type":"PAYLOAD","status":"ACTIVE","operator":null,"country":"US","launch_date":"2024-11-30","launch_site_code":"AFETR","launch_vehicle":null,"mission":null,"orbit_class":"UNKNOWN","rcs_meters":null,"size_class":null,"mass_kg":null,"dimensions":null,"purposes":["comms"],"wikipedia_slug":null,"has_3d_model":false,"image_url":null,"decayed_at":null,"tle_current":{"epoch":"2026-05-25T04:39:29.390688Z","epoch_age_seconds":52300,"freshness":"FRESH","line1":"1 62143U 24224E   26145.19409017  .00017107  00000+0  62956-3 0  9995","line2":"2 62143  42.9985  89.2263 0001015 267.4507  92.6228 15.27588264 83719","mean_motion":15.27588264,"eccentricity":0.0001015,"inclination_deg":42.9985,"raan_deg":89.2263,"arg_perigee_deg":267.4507,"mean_anomaly_deg":92.6228,"bstar":0.00062956,"rev_number":8371,"period_min":94.266238746123,"perigee_km":482.32794288515,"apogee_km":483.72075863935,"semimajor_km":6861.1613507623,"source":"CELESTRAK","updated_at":"2026-05-25T13:38:19.569384Z"}}}